• In Lithuania
  • List of Countries
  • For 7 days
  • Water Temperature
  • Satellite Maps
  • Weather Map
  • Weather Widgets
  • user-avatar
    Login

    Hourly Weather Saban-Antusta

    Today, 14 August, Tuesday

    Time Temperature Precipitation Wind Pressure Humidity
    00:00 +24°C° 0 mm 1 mps 748 mmHg 45%
    01:00 +24°C° 0 mm 1 mps 748 mmHg 45%
    02:00 +23°C° 0 mm 2 mps 748 mmHg 45%
    03:00 +22°C° 0 mm 3 mps 748 mmHg 46%
    04:00 +22°C° 0 mm 3 mps 748 mmHg 46%
    05:00 +23°C° 0 mm 2 mps 749 mmHg 46%
    06:00 +23°C° 0 mm 2 mps 749 mmHg 47%
    07:00 +25°C° 0 mm 2 mps 749 mmHg 42%
    08:00 +27°C° 0 mm 2 mps 749 mmHg 37%
    09:00 +29°C° 0 mm 2 mps 749 mmHg 31%
    10:00 +30°C° 0 mm 1 mps 749 mmHg 29%
    11:00 +31°C° 0 mm 1 mps 749 mmHg 27%
    12:00 +33°C° 0 mm 1 mps 749 mmHg 25%
    13:00 +33°C° 0 mm 1 mps 749 mmHg 24%
    14:00 +33°C° 0 mm 1 mps 749 mmHg 22%
    15:00 +34°C° 0 mm 1 mps 748 mmHg 21%
    16:00 +34°C° 0 mm 1 mps 748 mmHg 22%
    17:00 +34°C° 0 mm 1 mps 748 mmHg 23%
    18:00 +33°C° 0 mm 1 mps 748 mmHg 23%
    19:00 +32°C° 0 mm 1 mps 748 mmHg 26%
    20:00 +30°C° 0 mm 1 mps 748 mmHg 29%
    21:00 +29°C° 0 mm 1 mps 749 mmHg 32%
    22:00 +28°C° 0 mm 1 mps 749 mmHg 34%
    23:00 +28°C° 0 mm 1 mps 749 mmHg 36%

    Tomorrow, 15 August, Wednesday

    Time Temperature Precipitation Wind Pressure Humidity
    00:00 +27°C° 0 mm 1 mps 749 mmHg 37%
    01:00 +26°C° 0 mm 1 mps 748 mmHg 39%
    02:00 +26°C° 0 mm 1 mps 748 mmHg 40%
    03:00 +25°C° 0 mm 1 mps 748 mmHg 41%
    04:00 +25°C° 0 mm 1 mps 748 mmHg 42%
    05:00 +26°C° 0 mm 1 mps 748 mmHg 42%
    06:00 +26°C° 0 mm 1 mps 748 mmHg 43%
    07:00 +28°C° 0 mm 1 mps 749 mmHg 38%
    08:00 +30°C° 0 mm 2 mps 749 mmHg 33%
    09:00 +32°C° 0 mm 2 mps 749 mmHg 28%
    10:00 +34°C° 0 mm 3 mps 749 mmHg 26%
    11:00 +35°C° 0 mm 4 mps 749 mmHg 24%
    12:00 +36°C° 0 mm 5 mps 749 mmHg 22%
    13:00 +36°C° 0 mm 5 mps 749 mmHg 22%
    14:00 +37°C° 0 mm 5 mps 748 mmHg 21%
    15:00 +37°C° 0 mm 5 mps 748 mmHg 21%
    16:00 +36°C° 0 mm 5 mps 748 mmHg 22%
    17:00 +36°C° 0 mm 5 mps 748 mmHg 23%
    18:00 +35°C° 0 mm 4 mps 748 mmHg 25%
    19:00 +34°C° 0 mm 4 mps 748 mmHg 27%
    20:00 +32°C° 0 mm 4 mps 748 mmHg 30%
    21:00 +29°C° 0 mm 4 mps 749 mmHg 32%
    22:00 +29°C° 0 mm 4 mps 749 mmHg 35%
    23:00 +28°C° 0 mm 3 mps 749 mmHg 37%

    Day after tomorrow, 16 August, Thursday

    Time Temperature Precipitation Wind Pressure Humidity
    00:00 +27°C° 0 mm 3 mps 749 mmHg 39%
    01:00 +26°C° 0 mm 3 mps 749 mmHg 41%
    02:00 +26°C° 0 mm 2 mps 749 mmHg 43%
    03:00 +25°C° 0 mm 2 mps 749 mmHg 45%
    04:00 +25°C° 0 mm 2 mps 749 mmHg 46%
    05:00 +25°C° 0 mm 3 mps 749 mmHg 47%
    06:00 +25°C° 0 mm 3 mps 749 mmHg 49%
    07:00 +27°C° 0 mm 4 mps 749 mmHg 44%
    08:00 +29°C° 0 mm 5 mps 749 mmHg 39%
    09:00 +30°C° 0 mm 6 mps 749 mmHg 34%
    10:00 +33°C° 0 mm 6 mps 749 mmHg 31%
    11:00 +34°C° 0 mm 6 mps 748 mmHg 29%
    12:00 +35°C° 0 mm 7 mps 748 mmHg 26%
    13:00 +35°C° 0 mm 7 mps 748 mmHg 26%
    14:00 +36°C° 0 mm 6 mps 747 mmHg 25%
    15:00 +36°C° 0 mm 6 mps 747 mmHg 24%
    16:00 +36°C° 0 mm 6 mps 747 mmHg 25%
    17:00 +35°C° 0 mm 6 mps 747 mmHg 26%
    18:00 +35°C° 0 mm 5 mps 746 mmHg 27%
    19:00 +33°C° 0 mm 5 mps 747 mmHg 29%
    20:00 +32°C° 0 mm 5 mps 747 mmHg 31%
    21:00 +29°C° 0 mm 5 mps 747 mmHg 34%
    22:00 +29°C° 0 mm 5 mps 747 mmHg 36%
    23:00 +28°C° 0 mm 4 mps 747 mmHg 39%

    17 August, Friday

    Time Temperature Precipitation Wind Pressure Humidity
    00:00 +27°C° 0 mm 4 mps 747 mmHg 42%
    01:00 +26°C° 0 mm 4 mps 747 mmHg 44%
    02:00 +26°C° 0 mm 4 mps 746 mmHg 46%
    03:00 +25°C° 0 mm 3 mps 746 mmHg 47%
    04:00 +25°C° 0 mm 3 mps 746 mmHg 47%
    05:00 +25°C° 0 mm 3 mps 746 mmHg 47%
    06:00 +24°C° 0 mm 3 mps 747 mmHg 47%
    07:00 +27°C° 0 mm 3 mps 747 mmHg 42%
    08:00 +29°C° 0 mm 4 mps 747 mmHg 36%
    09:00 +32°C° 0 mm 5 mps 747 mmHg 30%
    10:00 +33°C° 0 mm 5 mps 746 mmHg 27%
    11:00 +35°C° 0 mm 5 mps 746 mmHg 25%
    12:00 +36°C° 0 mm 6 mps 746 mmHg 22%
    13:00 +38°C° 0 mm 6 mps 745 mmHg 22%
    14:00 +37°C° 0 mm 5 mps 745 mmHg 22%
    15:00 +39°C° 0 mm 5 mps 744 mmHg 21%
    16:00 +37°C° 0 mm 4 mps 744 mmHg 22%
    17:00 +37°C° 0 mm 4 mps 744 mmHg 24%
    18:00 +37°C° 0 mm 3 mps 744 mmHg 25%
    19:00 +35°C° 0 mm 3 mps 744 mmHg 27%
    20:00 +33°C° 0 mm 3 mps 744 mmHg 29%
    21:00 +31°C° 0 mm 3 mps 744 mmHg 31%
    22:00 +30°C° 0.1 mm 3 mps 744 mmHg 34%
    23:00 +30°C° 0.1 mm 3 mps 744 mmHg 37%

    18 August, Saturday

    Time Temperature Precipitation Wind Pressure Humidity
    00:00 +29°C° 0.1 mm 4 mps 744 mmHg 40%
    01:00 +29°C° 0.2 mm 3 mps 744 mmHg 46%
    02:00 +28°C° 0.2 mm 3 mps 744 mmHg 52%
    03:00 +27°C° 0.2 mm 3 mps 744 mmHg 58%
    04:00 +27°C° 0 mm 3 mps 744 mmHg 59%
    05:00 +27°C° 0 mm 3 mps 745 mmHg 60%
    06:00 +27°C° 0 mm 2 mps 745 mmHg 61%
    07:00 +28°C° 0.4 mm 3 mps 745 mmHg 57%
    08:00 +29°C° 0.4 mm 3 mps 745 mmHg 52%
    09:00 +29°C° 0.4 mm 4 mps 746 mmHg 48%
    10:00 +32°C° 0 mm 4 mps 745 mmHg 43%
    11:00 +33°C° 0 mm 4 mps 745 mmHg 38%
    12:00 +34°C° 0 mm 4 mps 745 mmHg 33%
    13:00 +35°C° 0 mm 4 mps 745 mmHg 31%
    14:00 +35°C° 0 mm 4 mps 745 mmHg 28%
    15:00 +36°C° 0 mm 4 mps 745 mmHg 25%
    16:00 +36°C° 0 mm 4 mps 745 mmHg 25%
    17:00 +35°C° 0 mm 3 mps 745 mmHg 25%
    18:00 +35°C° 0 mm 2 mps 745 mmHg 25%
    19:00 +34°C° 0 mm 3 mps 745 mmHg 27%
    20:00 +31°C° 0 mm 3 mps 746 mmHg 28%
    21:00 +30°C° 0 mm 3 mps 746 mmHg 30%
    22:00 +29°C° 0 mm 4 mps 746 mmHg 31%
    23:00 +29°C° 0 mm 4 mps 746 mmHg 33%

    19 August, Sunday

    Time Temperature Precipitation Wind Pressure Humidity
    00:00 +28°C° 0 mm 5 mps 746 mmHg 35%
    01:00 +28°C° 0 mm 5 mps 746 mmHg 37%
    02:00 +27°C° 0 mm 5 mps 746 mmHg 40%
    03:00 +26°C° 0 mm 5 mps 746 mmHg 42%
    04:00 +26°C° 0 mm 5 mps 747 mmHg 43%
    05:00 +25°C° 0 mm 5 mps 747 mmHg 43%
    06:00 +25°C° 0 mm 5 mps 747 mmHg 44%
    07:00 +26°C° 0 mm 5 mps 748 mmHg 40%
    08:00 +28°C° 0 mm 6 mps 748 mmHg 37%
    09:00 +29°C° 0 mm 6 mps 748 mmHg 34%
    10:00 +30°C° 0 mm 6 mps 748 mmHg 32%
    11:00 +32°C° 0 mm 6 mps 748 mmHg 30%
    12:00 +33°C° 0 mm 6 mps 748 mmHg 28%
    13:00 +33°C° 0 mm 5 mps 747 mmHg 27%
    14:00 +34°C° 0 mm 5 mps 747 mmHg 26%
    15:00 +34°C° 0 mm 5 mps 747 mmHg 25%
    16:00 +33°C° 0 mm 5 mps 747 mmHg 24%
    17:00 +32°C° 0 mm 5 mps 747 mmHg 24%
    18:00 +32°C° 0 mm 5 mps 747 mmHg 24%
    19:00 +29°C° 0 mm 5 mps 748 mmHg 24%
    20:00 +28°C° 0 mm 5 mps 748 mmHg 24%
    21:00 +26°C° 0 mm 4 mps 748 mmHg 25%
    22:00 +26°C° 0 mm 5 mps 748 mmHg 26%
    23:00 +25°C° 0 mm 5 mps 748 mmHg 28%
    Show more